THORAD DELTA 1 DEB, 8167

Orbit data source: Space-Track

THORAD DELTA 1 DEB, 8167 is space debris in SSO originally from a launch on Fri, 15 Nov 1974 UTC launched from the Air Force Western Test Range (AFWTR). Debris objects in space refer to the collection of defunct objects orbiting the Earth. Examples of debris include non-operational satellites, rocket bodies, and fragments generated from explosions, collisions, or faulty payload assembly.

Loading next visibility...
Identifier
8167, 1974-089AH
Orbit
SSO
Country
Flag of USUS
Related business
Manufacturer
Unknown
Mission
Spacecraft
Bus & Motor
Unknown
Mass
Unknown
Launch date (UTC)
1974-11-15 (51 years ago)
Launch vehicle
Unknown
Launch site
Air Force Western Test Range (AFWTR)
Object type
Payload
Rocket body
Debris
Shape & HBR
Unknown shape, 0.1 m
Radar Cross Section
Small (<0.1 m²)

Expand to show TLE details & history
Last TLE update: 1 day ago

TLE from 1 day ago
0 THORAD DELTA 1 DEB
1 08167U 74089AH  25340.49587262  .00007022  00000-0  13667-1 0  9992
2 08167 101.3502 175.0373 0133678 347.6577  40.4366 13.33391607401698
Epoch: 2025-12-06T11:54Z
TLE epoch observation values (Epoch: 2025-12-06T11:54:03.394Z)
Latitude
28.52463°
Longitude
-85.23062°
Altitude
1,061.458 km
Speed
7.361 km/s
True Right ascension
11h 15m 13s
True Declination
28° 23' 11"
Sunlit
Object was in daylight at epoch
Visualization orbit readout
Latitude
Unknown
Longitude
Unknown
Altitude
Unknown
Speed
Unknown
Apparent Right ascension
Unknown
Apparent Declination
Unknown
Sunlit
N/A
Visualization observer readout
Local Sidereal Time
11:04:16
Azimuth
Unknown
Elevation
Unknown
Doppler factor
Unknown
Orbital elements
Apogee altitude
1,231.798 km
Perigee altitude
1,031.025 km
Semi-major axis
7,509.548 km
Eccentricity
0.01337
Inclination
101.3502°
RAAN
175.0373°
Arg. of periapsis
347.6577°
True anomaly
41.4429°
Mean anomaly
40.4366°
Eccentric anomaly
40.93847°
Mean motion
3.3352 °/min
Orbital period
107.94 mins
BSTAR
0.013667
Loading maneuver chart data...
Computing Atmospheric mass density...

Documentation

Showing up to 5 results
|